Location: Unspecified
(0.0000°N, 0.0000°E)
Time: 17:15:25
(UTC+00:00)

Tiros 1 - Visible Passes

Search period start: 21 December 2014 00:00
Search period end: 31 December 2014 00:00
Orbit: 632 x 667 km, 48.4° (Epoch: 20 December)

Date Brightness Start Highest point End Pass type
(mag) Time Alt. Az. Time Alt. Az. Time Alt. Az.
21 Dec 9.5 19:40:02 10° SSE 19:40:53 12° SSE 19:40:53 12° SSE visible
22 Dec 8.8 20:04:35 10° SSW 20:06:57 27° S 20:06:57 27° S visible
23 Dec 9.3 18:52:05 10° SSE 18:53:39 12° SE 18:55:13 10° ESE visible
23 Dec 9.3 20:31:14 10° SW 20:33:05 23° WSW 20:33:05 23° WSW visible
24 Dec 7.8 19:16:14 10° SSW 19:20:32 38° SE 19:21:33 34° E visible
25 Dec 7.4 19:42:47 10° SW 19:47:20 59° NW 19:47:48 56° NNW visible
26 Dec 8.0 18:27:53 10° SSW 18:32:06 35° SE 18:36:19 10° ENE visible
26 Dec 9.3 20:11:06 10° W 20:14:05 18° NW 20:14:05 18° NW visible
27 Dec 7.4 18:54:19 10° SW 18:58:54 65° NW 19:02:39 15° NNE visible
28 Dec 9.5 05:26:54 10° N 05:30:14 19° NE 05:33:35 10° E visible
28 Dec 9.3 19:22:28 10° W 19:25:44 19° NW 19:28:58 10° N visible
30 Dec 9.5 04:38:37 10° N 04:41:46 17° NE 04:44:54 10° E visible
30 Dec 9.3 18:33:50 10° W 18:37:16 21° NW 18:40:42 10° N visible
